Year,Month,Day,Hour,Minute,Value (Times are PST for temperature in C)
2006,05,16,00,00,17.60
2006,05,16,00,01,17.60
2006,05,16,00,02,17.70
2006,05,16,00,03,17.70
2006,05,16,00,04,17.80
2006,05,16,00,05,17.80
2006,05,16,00,06,17.90
2006,05,16,00,07,17.90
2006,05,16,00,08,17.90
2006,05,16,00,09,17.90
2006,05,16,00,10,17.90
2006,05,16,00,11,17.90
2006,05,16,00,12,17.90
2006,05,16,00,13,17.90
2006,05,16,00,14,17.90
2006,05,16,00,15,17.90
2006,05,16,00,16,17.90
2006,05,16,00,17,17.80
2006,05,16,00,18,17.80
2006,05,16,00,19,17.80
2006,05,16,00,20,17.70
2006,05,16,00,21,17.70
2006,05,16,00,22,17.60
2006,05,16,00,23,17.50
2006,05,16,00,24,17.50
2006,05,16,00,25,17.40
2006,05,16,00,26,17.40
2006,05,16,00,27,17.30
2006,05,16,00,28,17.30
2006,05,16,00,29,17.30
2006,05,16,00,30,17.30
2006,05,16,00,31,17.20
2006,05,16,00,32,17.20
2006,05,16,00,33,17.30
2006,05,16,00,34,17.30
2006,05,16,00,35,17.30
2006,05,16,00,36,17.40
2006,05,16,00,37,17.40
2006,05,16,00,38,17.50
2006,05,16,00,39,17.60
2006,05,16,00,40,17.60
2006,05,16,00,41,17.70
2006,05,16,00,42,17.70
2006,05,16,00,43,17.70
2006,05,16,00,44,17.80
2006,05,16,00,45,17.80
2006,05,16,00,46,17.90
2006,05,16,00,47,17.90
2006,05,16,00,48,17.90
2006,05,16,00,49,17.90
2006,05,16,00,50,18.00
2006,05,16,00,51,18.10
2006,05,16,00,52,18.20
2006,05,16,00,53,18.20
2006,05,16,00,54,18.20
2006,05,16,00,55,18.20
2006,05,16,00,56,18.30
2006,05,16,00,57,18.40
2006,05,16,00,58,18.40
2006,05,16,00,59,18.40
2006,05,16,01,00,18.40
2006,05,16,01,01,18.40
2006,05,16,01,02,18.50
2006,05,16,01,03,18.50
2006,05,16,01,04,18.50
2006,05,16,01,05,18.50
2006,05,16,01,06,18.60
2006,05,16,01,07,18.60
2006,05,16,01,08,18.60
2006,05,16,01,09,18.60
2006,05,16,01,10,18.70
2006,05,16,01,11,18.70
2006,05,16,01,12,18.60
2006,05,16,01,13,18.60
2006,05,16,01,14,18.60
2006,05,16,01,15,18.60
2006,05,16,01,16,18.50
2006,05,16,01,17,18.50
2006,05,16,01,18,18.50
2006,05,16,01,19,18.50
2006,05,16,01,20,18.50
2006,05,16,01,21,18.50
2006,05,16,01,22,18.50
2006,05,16,01,23,18.50
2006,05,16,01,24,18.50
2006,05,16,01,25,18.50
2006,05,16,01,26,18.50
2006,05,16,01,27,18.50
2006,05,16,01,28,18.50
2006,05,16,01,29,18.40
2006,05,16,01,30,18.40
2006,05,16,01,31,18.40
2006,05,16,01,32,18.30
2006,05,16,01,33,18.20
2006,05,16,01,34,18.20
2006,05,16,01,35,18.20
2006,05,16,01,36,18.20
2006,05,16,01,37,18.10
2006,05,16,01,38,18.00
2006,05,16,01,39,17.90
2006,05,16,01,40,17.80
2006,05,16,01,41,17.70
2006,05,16,01,42,17.60
2006,05,16,01,43,17.40
2006,05,16,01,44,17.30
2006,05,16,01,45,17.20
2006,05,16,01,46,17.10
2006,05,16,01,47,17.00
2006,05,16,01,48,16.80
2006,05,16,01,49,16.70
2006,05,16,01,50,16.60
2006,05,16,01,51,16.50
2006,05,16,01,52,16.30
2006,05,16,01,53,16.20
2006,05,16,01,54,16.10
2006,05,16,01,55,16.00
2006,05,16,01,56,15.90
2006,05,16,01,57,15.80
2006,05,16,01,58,15.70
2006,05,16,01,59,15.60
2006,05,16,02,00,15.50
2006,05,16,02,01,15.40
2006,05,16,02,02,15.30
2006,05,16,02,03,15.30
2006,05,16,02,04,15.30
2006,05,16,02,05,15.20
2006,05,16,02,06,15.10
2006,05,16,02,07,15.10
2006,05,16,02,08,15.00
2006,05,16,02,09,15.00
2006,05,16,02,10,15.00
2006,05,16,02,11,14.90
2006,05,16,02,12,14.90
2006,05,16,02,13,14.80
2006,05,16,02,14,14.80
2006,05,16,02,15,14.80
2006,05,16,02,16,14.80
2006,05,16,02,17,14.70
2006,05,16,02,18,14.70
2006,05,16,02,19,14.70
2006,05,16,02,20,14.70
2006,05,16,02,21,14.60
2006,05,16,02,22,14.60
2006,05,16,02,23,14.60
2006,05,16,02,24,14.50
2006,05,16,02,25,14.50
2006,05,16,02,26,14.40
2006,05,16,02,27,14.40
2006,05,16,02,28,14.40
2006,05,16,02,29,14.30
2006,05,16,02,30,14.30
2006,05,16,02,31,14.30
2006,05,16,02,32,14.20
2006,05,16,02,33,14.20
2006,05,16,02,34,14.20
2006,05,16,02,35,14.20
2006,05,16,02,36,14.20
2006,05,16,02,37,14.20
2006,05,16,02,38,14.20
2006,05,16,02,39,14.20
2006,05,16,02,40,14.20
2006,05,16,02,41,14.20
2006,05,16,02,42,14.20
2006,05,16,02,43,14.20
2006,05,16,02,44,14.20
2006,05,16,02,45,14.20
2006,05,16,02,46,14.20
2006,05,16,02,47,14.20
2006,05,16,02,48,14.20
2006,05,16,02,49,14.20
2006,05,16,02,50,14.10
2006,05,16,02,51,14.10
2006,05,16,02,52,14.10
2006,05,16,02,53,14.10
2006,05,16,02,54,14.10
2006,05,16,02,55,14.10
2006,05,16,02,56,14.20
2006,05,16,02,57,14.20
2006,05,16,02,58,14.20
2006,05,16,02,59,14.20
2006,05,16,03,00,14.20
2006,05,16,03,01,14.20
2006,05,16,03,02,14.20
2006,05,16,03,03,14.20
2006,05,16,03,04,14.10
2006,05,16,03,05,14.10
2006,05,16,03,06,14.00
2006,05,16,03,07,14.00
2006,05,16,03,08,13.90
2006,05,16,03,09,13.80
2006,05,16,03,10,13.80
2006,05,16,03,11,13.70
2006,05,16,03,12,13.70
2006,05,16,03,13,13.60
2006,05,16,03,14,13.60
2006,05,16,03,15,13.50
2006,05,16,03,16,13.50
2006,05,16,03,17,13.40
2006,05,16,03,18,13.40
2006,05,16,03,19,13.30
2006,05,16,03,20,13.30
2006,05,16,03,21,13.30
2006,05,16,03,22,13.30
2006,05,16,03,23,13.30
2006,05,16,03,24,13.30
2006,05,16,03,25,13.30
2006,05,16,03,26,13.30
2006,05,16,03,27,13.30
2006,05,16,03,28,13.30
2006,05,16,03,29,13.30
2006,05,16,03,30,13.30
2006,05,16,03,31,13.30
2006,05,16,03,32,13.30
2006,05,16,03,33,13.30
2006,05,16,03,34,13.30
2006,05,16,03,35,13.30
2006,05,16,03,36,13.20
2006,05,16,03,37,13.20
2006,05,16,03,38,13.20
2006,05,16,03,39,13.20
2006,05,16,03,40,13.20
2006,05,16,03,41,13.20
2006,05,16,03,42,13.20
2006,05,16,03,43,13.20
2006,05,16,03,44,13.20
2006,05,16,03,45,13.20
2006,05,16,03,46,13.20
2006,05,16,03,47,13.20
2006,05,16,03,48,13.20
2006,05,16,03,49,13.20
2006,05,16,03,50,13.20
2006,05,16,03,51,13.20
2006,05,16,03,52,13.20
2006,05,16,03,53,13.20
2006,05,16,03,54,13.20
2006,05,16,03,55,13.20
2006,05,16,03,56,13.20
2006,05,16,03,57,13.20
2006,05,16,03,58,13.30
2006,05,16,03,59,13.30
2006,05,16,04,00,13.30
2006,05,16,04,01,13.30
2006,05,16,04,02,13.20
2006,05,16,04,03,13.20
2006,05,16,04,04,13.20
2006,05,16,04,05,13.10
2006,05,16,04,06,13.10
2006,05,16,04,07,13.00
2006,05,16,04,08,13.00
2006,05,16,04,09,12.90
2006,05,16,04,10,12.80
2006,05,16,04,11,12.80
2006,05,16,04,12,12.70
2006,05,16,04,13,12.70
2006,05,16,04,14,12.60
2006,05,16,04,15,12.60
2006,05,16,04,16,12.50
2006,05,16,04,17,12.50
2006,05,16,04,18,12.50
2006,05,16,04,19,12.40
2006,05,16,04,20,12.40
2006,05,16,04,21,12.40
2006,05,16,04,22,12.30
2006,05,16,04,23,12.30
2006,05,16,04,24,12.30
2006,05,16,04,25,12.30
2006,05,16,04,26,12.30
2006,05,16,04,27,12.30
2006,05,16,04,28,12.30
2006,05,16,04,29,12.30
2006,05,16,04,30,12.30
2006,05,16,04,31,12.30
2006,05,16,04,32,12.30
2006,05,16,04,33,12.30
2006,05,16,04,34,12.30
2006,05,16,04,35,12.40
2006,05,16,04,36,12.40
2006,05,16,04,37,12.40
2006,05,16,04,38,12.40
2006,05,16,04,39,12.40
2006,05,16,04,40,12.50
2006,05,16,04,41,12.50
2006,05,16,04,42,12.50
2006,05,16,04,43,12.60
2006,05,16,04,44,12.60
2006,05,16,04,45,12.60
2006,05,16,04,46,12.60
2006,05,16,04,47,12.60
2006,05,16,04,48,12.60
2006,05,16,04,49,12.60
2006,05,16,04,50,12.50
2006,05,16,04,51,12.50
2006,05,16,04,52,12.50
2006,05,16,04,53,12.50
2006,05,16,04,54,12.40
2006,05,16,04,55,12.40
2006,05,16,04,56,12.40
2006,05,16,04,57,12.30
2006,05,16,04,58,12.30
2006,05,16,04,59,12.30
2006,05,16,05,00,12.30
2006,05,16,05,01,12.30
2006,05,16,05,02,12.30
2006,05,16,05,03,12.30
2006,05,16,05,04,12.30
2006,05,16,05,05,12.30
2006,05,16,05,06,12.30
2006,05,16,05,07,12.30
2006,05,16,05,08,12.30
2006,05,16,05,09,12.30
2006,05,16,05,10,12.30
2006,05,16,05,11,12.30
2006,05,16,05,12,12.30
2006,05,16,05,13,12.30
2006,05,16,05,14,12.30
2006,05,16,05,15,12.30
2006,05,16,05,16,12.40
2006,05,16,05,17,12.40
2006,05,16,05,18,12.40
2006,05,16,05,19,12.30
2006,05,16,05,20,12.30
2006,05,16,05,21,12.30
2006,05,16,05,22,12.30
2006,05,16,05,23,12.30
2006,05,16,05,24,12.30
2006,05,16,05,25,12.20
2006,05,16,05,26,12.20
2006,05,16,05,27,12.20
2006,05,16,05,28,12.10
2006,05,16,05,29,12.10
2006,05,16,05,30,12.10
2006,05,16,05,31,12.10
2006,05,16,05,32,12.00
2006,05,16,05,33,12.00
2006,05,16,05,34,12.00
2006,05,16,05,35,12.00
2006,05,16,05,36,12.00
2006,05,16,05,37,12.00
2006,05,16,05,38,12.00
2006,05,16,05,39,12.00
2006,05,16,05,40,12.00
2006,05,16,05,41,12.00
2006,05,16,05,42,12.00
2006,05,16,05,43,12.10
2006,05,16,05,44,12.10
2006,05,16,05,45,12.10
2006,05,16,05,46,12.10
2006,05,16,05,47,12.10
2006,05,16,05,48,12.10
2006,05,16,05,49,12.10
2006,05,16,05,50,12.10
2006,05,16,05,51,12.20
2006,05,16,05,52,12.20
2006,05,16,05,53,12.20
2006,05,16,05,54,12.20
2006,05,16,05,55,12.30
2006,05,16,05,56,12.30
2006,05,16,05,57,12.30
2006,05,16,05,58,12.30
2006,05,16,05,59,12.30
2006,05,16,06,00,12.30
2006,05,16,06,01,12.30
2006,05,16,06,02,12.30
2006,05,16,06,03,12.30
2006,05,16,06,04,12.30
2006,05,16,06,05,12.30
2006,05,16,06,06,12.40
2006,05,16,06,07,12.40
2006,05,16,06,08,12.40
2006,05,16,06,09,12.40
2006,05,16,06,10,12.40
2006,05,16,06,11,12.40
2006,05,16,06,12,12.50
2006,05,16,06,13,12.50
2006,05,16,06,14,12.50
2006,05,16,06,15,12.50
2006,05,16,06,16,12.50
2006,05,16,06,17,12.50
2006,05,16,06,18,12.50
2006,05,16,06,19,12.50
2006,05,16,06,20,12.60
2006,05,16,06,21,12.60
2006,05,16,06,22,12.60
2006,05,16,06,23,12.60
2006,05,16,06,24,12.60
2006,05,16,06,25,12.70
2006,05,16,06,26,12.70
2006,05,16,06,27,12.80
2006,05,16,06,28,12.80
2006,05,16,06,29,12.80
2006,05,16,06,30,12.80
2006,05,16,06,31,12.80
2006,05,16,06,32,12.80
2006,05,16,06,33,12.90
2006,05,16,06,34,12.90
2006,05,16,06,35,13.00
2006,05,16,06,36,13.00
2006,05,16,06,37,13.00
2006,05,16,06,38,13.10
2006,05,16,06,39,13.10
2006,05,16,06,40,13.20
2006,05,16,06,41,13.30
2006,05,16,06,42,13.30
2006,05,16,06,43,13.40
2006,05,16,06,44,13.40
2006,05,16,06,45,13.50
2006,05,16,06,46,13.60
2006,05,16,06,47,13.60
2006,05,16,06,48,13.70
2006,05,16,06,49,13.70
2006,05,16,06,50,13.80
2006,05,16,06,51,13.90
2006,05,16,06,52,13.90
2006,05,16,06,53,14.00
2006,05,16,06,54,14.00
2006,05,16,06,55,14.10
2006,05,16,06,56,14.20
2006,05,16,06,57,14.30
2006,05,16,06,58,14.50
2006,05,16,06,59,14.60
2006,05,16,07,00,14.80
2006,05,16,07,01,14.90
2006,05,16,07,02,14.90
2006,05,16,07,03,15.00
2006,05,16,07,04,15.00
2006,05,16,07,05,15.00
2006,05,16,07,06,15.10
2006,05,16,07,07,15.20
2006,05,16,07,08,15.30
2006,05,16,07,09,15.40
2006,05,16,07,10,15.60
2006,05,16,07,11,15.80
2006,05,16,07,12,16.10
2006,05,16,07,13,16.40
2006,05,16,07,14,16.50
2006,05,16,07,15,16.70
2006,05,16,07,16,16.80
2006,05,16,07,17,16.90
2006,05,16,07,18,17.10
2006,05,16,07,19,17.30
2006,05,16,07,20,17.40
2006,05,16,07,21,17.50
2006,05,16,07,22,17.70
2006,05,16,07,23,17.80
2006,05,16,07,24,17.80
2006,05,16,07,25,17.90
2006,05,16,07,26,17.90
2006,05,16,07,27,18.00
2006,05,16,07,28,18.00
2006,05,16,07,29,18.20
2006,05,16,07,30,18.30
2006,05,16,07,31,18.50
2006,05,16,07,32,18.60
2006,05,16,07,33,18.70
2006,05,16,07,34,18.90
2006,05,16,07,35,18.90
2006,05,16,07,36,19.00
2006,05,16,07,37,19.10
2006,05,16,07,38,19.10
2006,05,16,07,39,19.10
2006,05,16,07,40,19.10
2006,05,16,07,41,19.10
2006,05,16,07,42,19.10
2006,05,16,07,43,19.10
2006,05,16,07,44,19.10
2006,05,16,07,45,19.20
2006,05,16,07,46,19.30
2006,05,16,07,47,19.30
2006,05,16,07,48,19.30
2006,05,16,07,49,19.40
2006,05,16,07,50,19.40
2006,05,16,07,51,19.40
2006,05,16,07,52,19.40
2006,05,16,07,53,19.40
2006,05,16,07,54,19.40
2006,05,16,07,55,19.50
2006,05,16,07,56,19.40
2006,05,16,07,57,19.40
2006,05,16,07,58,19.40
2006,05,16,07,59,19.30
2006,05,16,08,00,19.30
2006,05,16,08,01,19.40
2006,05,16,08,02,19.40
2006,05,16,08,03,19.50
2006,05,16,08,04,19.60
2006,05,16,08,05,19.60
2006,05,16,08,06,19.80
2006,05,16,08,07,20.00
2006,05,16,08,08,20.10
2006,05,16,08,09,20.20
2006,05,16,08,10,20.20
2006,05,16,08,11,20.20
2006,05,16,08,12,20.20
2006,05,16,08,13,20.20
2006,05,16,08,14,20.10
2006,05,16,08,15,20.10
2006,05,16,08,16,20.10
2006,05,16,08,17,20.10
2006,05,16,08,18,20.20
2006,05,16,08,19,20.30
2006,05,16,08,20,20.30
2006,05,16,08,21,20.40
2006,05,16,08,22,20.50
2006,05,16,08,23,20.60
2006,05,16,08,24,20.60
2006,05,16,08,25,20.70
2006,05,16,08,26,20.70
2006,05,16,08,27,20.80
2006,05,16,08,28,20.90
2006,05,16,08,29,20.90
2006,05,16,08,30,20.90
2006,05,16,08,31,21.00
2006,05,16,08,32,21.10
2006,05,16,08,33,21.10
2006,05,16,08,34,21.10
2006,05,16,08,35,21.20
2006,05,16,08,36,21.20
2006,05,16,08,37,21.30
2006,05,16,08,38,21.30
2006,05,16,08,39,21.30
2006,05,16,08,40,21.40
2006,05,16,08,41,21.50
2006,05,16,08,42,21.60
2006,05,16,08,43,21.60
2006,05,16,08,44,21.80
2006,05,16,08,45,21.90
2006,05,16,08,46,22.00
2006,05,16,08,47,22.00
2006,05,16,08,48,22.10
2006,05,16,08,49,22.20
2006,05,16,08,50,22.20
2006,05,16,08,51,22.30
2006,05,16,08,52,22.40
2006,05,16,08,53,22.50
2006,05,16,08,54,22.60
2006,05,16,08,55,22.80
2006,05,16,08,56,22.90
2006,05,16,08,57,23.00
2006,05,16,08,58,23.20
2006,05,16,08,59,23.30
2006,05,16,09,00,23.40
2006,05,16,09,01,23.50
2006,05,16,09,02,23.60
2006,05,16,09,03,23.60
2006,05,16,09,04,23.70
2006,05,16,09,05,23.80
2006,05,16,09,06,23.80
2006,05,16,09,07,23.90
2006,05,16,09,08,23.90
2006,05,16,09,09,23.90
2006,05,16,09,10,24.00
2006,05,16,09,11,24.10
2006,05,16,09,12,24.10
2006,05,16,09,13,24.20
2006,05,16,09,14,24.20
2006,05,16,09,15,24.20
2006,05,16,09,16,24.20
2006,05,16,09,17,24.20
2006,05,16,09,18,24.20
2006,05,16,09,19,24.30
2006,05,16,09,20,24.20
2006,05,16,09,21,24.20
2006,05,16,09,22,24.30
2006,05,16,09,23,24.30
2006,05,16,09,24,24.20
2006,05,16,09,25,24.30
2006,05,16,09,26,24.30
2006,05,16,09,27,24.40
2006,05,16,09,28,24.40
2006,05,16,09,29,24.50
2006,05,16,09,30,24.50
2006,05,16,09,31,24.50
2006,05,16,09,32,24.60
2006,05,16,09,33,24.60
2006,05,16,09,34,24.70
2006,05,16,09,35,24.80
2006,05,16,09,36,24.90
2006,05,16,09,37,24.90
2006,05,16,09,38,25.00
2006,05,16,09,39,25.00
2006,05,16,09,40,25.10
2006,05,16,09,41,25.10
2006,05,16,09,42,25.20
2006,05,16,09,43,25.20
2006,05,16,09,44,25.20
2006,05,16,09,45,25.20
2006,05,16,09,46,25.20
2006,05,16,09,47,25.20
2006,05,16,09,48,25.30
2006,05,16,09,49,25.30
2006,05,16,09,50,25.30
2006,05,16,09,51,25.30
2006,05,16,09,52,25.30
2006,05,16,09,53,25.30
2006,05,16,09,54,25.30
2006,05,16,09,55,25.20
2006,05,16,09,56,25.20
2006,05,16,09,57,25.20
2006,05,16,09,58,25.10
2006,05,16,09,59,25.20
2006,05,16,10,00,25.20
2006,05,16,10,01,25.30
2006,05,16,10,02,25.40
2006,05,16,10,03,25.40
2006,05,16,10,04,25.40
2006,05,16,10,05,25.40
2006,05,16,10,06,25.50
2006,05,16,10,07,25.50
2006,05,16,10,08,25.60
2006,05,16,10,09,25.60
2006,05,16,10,10,25.70
2006,05,16,10,11,25.70
2006,05,16,10,12,25.70
2006,05,16,10,13,25.80
2006,05,16,10,14,25.80
2006,05,16,10,15,26.00
2006,05,16,10,16,26.00
2006,05,16,10,17,26.10
2006,05,16,10,18,26.10
2006,05,16,10,19,26.10
2006,05,16,10,20,26.10
2006,05,16,10,21,26.10
2006,05,16,10,22,26.20
2006,05,16,10,23,26.20
2006,05,16,10,24,26.30
2006,05,16,10,25,26.30
2006,05,16,10,26,26.30
2006,05,16,10,27,26.30
2006,05,16,10,28,26.30
2006,05,16,10,29,26.30
2006,05,16,10,30,26.30
2006,05,16,10,31,26.50
2006,05,16,10,32,26.50
2006,05,16,10,33,26.60
2006,05,16,10,34,26.60
2006,05,16,10,35,26.60
2006,05,16,10,36,26.60
2006,05,16,10,37,26.50
2006,05,16,10,38,26.60
2006,05,16,10,39,26.50
2006,05,16,10,40,26.40
2006,05,16,10,41,26.50
2006,05,16,10,42,26.60
2006,05,16,10,43,26.70
2006,05,16,10,44,26.80
2006,05,16,10,45,26.80
2006,05,16,10,46,26.80
2006,05,16,10,47,26.80
2006,05,16,10,48,26.60
2006,05,16,10,49,26.70
2006,05,16,10,50,26.80
2006,05,16,10,51,26.80
2006,05,16,10,52,26.70
2006,05,16,10,53,26.70
2006,05,16,10,54,26.70
2006,05,16,10,55,26.70
2006,05,16,10,56,26.80
2006,05,16,10,57,26.90
2006,05,16,10,58,27.00
2006,05,16,10,59,27.10
2006,05,16,11,00,27.30
2006,05,16,11,01,27.30
2006,05,16,11,02,27.30
2006,05,16,11,03,27.30
2006,05,16,11,04,27.30
2006,05,16,11,05,27.40
2006,05,16,11,06,27.50
2006,05,16,11,07,27.60
2006,05,16,11,08,27.60
2006,05,16,11,09,27.70
2006,05,16,11,10,27.80
2006,05,16,11,11,27.80
2006,05,16,11,12,27.80
2006,05,16,11,13,27.70
2006,05,16,11,14,27.50
2006,05,16,11,15,27.40
2006,05,16,11,16,27.30
2006,05,16,11,17,27.30
2006,05,16,11,18,27.30
2006,05,16,11,19,27.30
2006,05,16,11,20,27.30
2006,05,16,11,21,27.30
2006,05,16,11,22,27.30
2006,05,16,11,23,27.30
2006,05,16,11,24,27.30
2006,05,16,11,25,27.30
2006,05,16,11,26,27.30
2006,05,16,11,27,27.20
2006,05,16,11,28,27.20
2006,05,16,11,29,27.20
2006,05,16,11,30,27.20
2006,05,16,11,31,27.10
2006,05,16,11,32,27.10
2006,05,16,11,33,27.10
2006,05,16,11,34,27.10
2006,05,16,11,35,27.20
2006,05,16,11,36,27.20
2006,05,16,11,37,27.20
2006,05,16,11,38,27.20
2006,05,16,11,39,27.20
2006,05,16,11,40,27.20
2006,05,16,11,41,27.20
2006,05,16,11,42,27.30
2006,05,16,11,43,27.40
2006,05,16,11,44,27.50
2006,05,16,11,45,27.60
2006,05,16,11,46,27.70
2006,05,16,11,47,27.70
2006,05,16,11,48,27.60
2006,05,16,11,49,27.40
2006,05,16,11,50,27.30
2006,05,16,11,51,27.30
2006,05,16,11,52,27.20
2006,05,16,11,53,27.00
2006,05,16,11,54,26.90
2006,05,16,11,55,26.90
2006,05,16,11,56,26.90
2006,05,16,11,57,26.90
2006,05,16,11,58,26.90
2006,05,16,11,59,26.90
2006,05,16,12,00,26.90
2006,05,16,12,01,26.90
2006,05,16,12,02,26.90
2006,05,16,12,03,27.00
2006,05,16,12,04,27.10
2006,05,16,12,05,27.10
2006,05,16,12,06,27.20
2006,05,16,12,07,27.20
2006,05,16,12,08,27.20
2006,05,16,12,09,27.30
2006,05,16,12,10,27.30
2006,05,16,12,11,27.30
2006,05,16,12,12,27.30
2006,05,16,12,13,27.30
2006,05,16,12,14,27.40
2006,05,16,12,15,27.40
2006,05,16,12,16,27.50
2006,05,16,12,17,27.60
2006,05,16,12,18,27.70
2006,05,16,12,19,27.80
2006,05,16,12,20,27.80
2006,05,16,12,21,27.80
2006,05,16,12,22,27.80
2006,05,16,12,23,27.70
2006,05,16,12,24,27.70
2006,05,16,12,25,27.60
2006,05,16,12,26,27.70
2006,05,16,12,27,27.70
2006,05,16,12,28,27.80
2006,05,16,12,29,27.80
2006,05,16,12,30,27.90
2006,05,16,12,31,27.90
2006,05,16,12,32,27.90
2006,05,16,12,33,28.00
2006,05,16,12,34,28.00
2006,05,16,12,35,27.90
2006,05,16,12,36,27.90
2006,05,16,12,37,28.00
2006,05,16,12,38,28.10
2006,05,16,12,39,28.20
2006,05,16,12,40,28.20
2006,05,16,12,41,28.30
2006,05,16,12,42,28.30
2006,05,16,12,43,28.30
2006,05,16,12,44,28.40
2006,05,16,12,45,28.40
2006,05,16,12,46,28.30
2006,05,16,12,47,28.30
2006,05,16,12,48,28.30
2006,05,16,12,49,28.30
2006,05,16,12,50,28.10
2006,05,16,12,51,27.90
2006,05,16,12,52,27.90
2006,05,16,12,53,27.90
2006,05,16,12,54,27.80
2006,05,16,12,55,27.70
2006,05,16,12,56,27.70
2006,05,16,12,57,27.60
2006,05,16,12,58,27.70
2006,05,16,12,59,27.70
2006,05,16,13,00,27.80
2006,05,16,13,01,27.90
2006,05,16,13,02,27.90
2006,05,16,13,03,27.80
2006,05,16,13,04,27.90
2006,05,16,13,05,27.90
2006,05,16,13,06,28.00
2006,05,16,13,07,28.00
2006,05,16,13,08,28.00
2006,05,16,13,09,28.10
2006,05,16,13,10,28.10
2006,05,16,13,11,28.20
2006,05,16,13,12,28.20
2006,05,16,13,13,28.20
2006,05,16,13,14,28.30
2006,05,16,13,15,28.30
2006,05,16,13,16,28.30
2006,05,16,13,17,28.20
2006,05,16,13,18,28.10
2006,05,16,13,19,28.00
2006,05,16,13,20,28.00
2006,05,16,13,21,28.00
2006,05,16,13,22,28.10
2006,05,16,13,23,28.20
2006,05,16,13,24,28.20
2006,05,16,13,25,28.30
2006,05,16,13,26,28.40
2006,05,16,13,27,28.40
2006,05,16,13,28,28.40
2006,05,16,13,29,28.30
2006,05,16,13,30,28.30
2006,05,16,13,31,28.10
2006,05,16,13,32,28.10
2006,05,16,13,33,28.10
2006,05,16,13,34,28.20
2006,05,16,13,35,28.20
2006,05,16,13,36,28.20
2006,05,16,13,37,28.10
2006,05,16,13,38,28.10
2006,05,16,13,39,28.00
2006,05,16,13,40,28.00
2006,05,16,13,41,28.10
2006,05,16,13,42,28.10
2006,05,16,13,43,28.10
2006,05,16,13,44,28.00
2006,05,16,13,45,28.00
2006,05,16,13,46,28.10
2006,05,16,13,47,28.20
2006,05,16,13,48,28.30
2006,05,16,13,49,28.40
2006,05,16,13,50,28.50
2006,05,16,13,51,28.70
2006,05,16,13,52,28.90
2006,05,16,13,53,29.00
2006,05,16,13,54,29.00
2006,05,16,13,55,29.00
2006,05,16,13,56,29.00
2006,05,16,13,57,29.00
2006,05,16,13,58,29.10
2006,05,16,13,59,29.10
2006,05,16,14,00,29.20
2006,05,16,14,01,29.20
2006,05,16,14,02,29.20
2006,05,16,14,03,29.00
2006,05,16,14,04,28.90
2006,05,16,14,05,28.90
2006,05,16,14,06,28.70
2006,05,16,14,07,28.70
2006,05,16,14,08,28.50
2006,05,16,14,09,28.20
2006,05,16,14,10,28.10
2006,05,16,14,11,28.10
2006,05,16,14,12,28.10
2006,05,16,14,13,28.00
2006,05,16,14,14,28.00
2006,05,16,14,15,28.00
2006,05,16,14,16,28.00
2006,05,16,14,17,27.90
2006,05,16,14,18,27.90
2006,05,16,14,19,27.80
2006,05,16,14,20,27.80
2006,05,16,14,21,27.90
2006,05,16,14,22,27.90
2006,05,16,14,23,27.90
2006,05,16,14,24,27.80
2006,05,16,14,25,27.90
2006,05,16,14,26,27.80
2006,05,16,14,27,27.90
2006,05,16,14,28,28.00
2006,05,16,14,29,28.00
2006,05,16,14,30,28.00
2006,05,16,14,31,28.00
2006,05,16,14,32,28.00
2006,05,16,14,33,28.00
2006,05,16,14,34,28.20
2006,05,16,14,35,28.40
2006,05,16,14,36,28.50
2006,05,16,14,37,28.60
2006,05,16,14,38,28.60
2006,05,16,14,39,28.70
2006,05,16,14,40,28.50
2006,05,16,14,41,28.60
2006,05,16,14,42,28.50
2006,05,16,14,43,28.40
2006,05,16,14,44,28.40
2006,05,16,14,45,28.40
2006,05,16,14,46,28.60
2006,05,16,14,47,28.70
2006,05,16,14,48,28.90
2006,05,16,14,49,29.00
2006,05,16,14,50,29.10
2006,05,16,14,51,29.30
2006,05,16,14,52,29.40
2006,05,16,14,53,29.50
2006,05,16,14,54,29.50
2006,05,16,14,55,29.50
2006,05,16,14,56,29.50
2006,05,16,14,57,29.40
2006,05,16,14,58,29.40
2006,05,16,14,59,29.40
2006,05,16,15,00,29.40
2006,05,16,15,01,29.50
2006,05,16,15,02,29.60
2006,05,16,15,03,29.70
2006,05,16,15,04,29.70
2006,05,16,15,05,29.70
2006,05,16,15,06,29.70
2006,05,16,15,07,29.70
2006,05,16,15,08,29.70
2006,05,16,15,09,29.70
2006,05,16,15,10,29.80
2006,05,16,15,11,29.80
2006,05,16,15,12,29.80
2006,05,16,15,13,29.80
2006,05,16,15,14,29.90
2006,05,16,15,15,29.80
2006,05,16,15,16,29.80
2006,05,16,15,17,29.70
2006,05,16,15,18,29.70
2006,05,16,15,19,29.80
2006,05,16,15,20,29.80
2006,05,16,15,21,29.90
2006,05,16,15,22,29.90
2006,05,16,15,23,29.80
2006,05,16,15,24,29.70
2006,05,16,15,25,29.70
2006,05,16,15,26,29.60
2006,05,16,15,27,29.60
2006,05,16,15,28,29.60
2006,05,16,15,29,29.70
2006,05,16,15,30,29.70
2006,05,16,15,31,29.70
2006,05,16,15,32,29.70
2006,05,16,15,33,29.70
2006,05,16,15,34,29.60
2006,05,16,15,35,29.70
2006,05,16,15,36,29.60
2006,05,16,15,37,29.70
2006,05,16,15,38,29.70
2006,05,16,15,39,29.70
2006,05,16,15,40,29.70
2006,05,16,15,41,29.70
2006,05,16,15,42,29.80
2006,05,16,15,43,29.90
2006,05,16,15,44,29.90
2006,05,16,15,45,29.90
2006,05,16,15,46,29.90
2006,05,16,15,47,29.70
2006,05,16,15,48,29.60
2006,05,16,15,49,29.60
2006,05,16,15,50,29.50
2006,05,16,15,51,29.30
2006,05,16,15,52,29.30
2006,05,16,15,53,29.30
2006,05,16,15,54,29.30
2006,05,16,15,55,29.30
2006,05,16,15,56,29.30
2006,05,16,15,57,29.30
2006,05,16,15,58,29.20
2006,05,16,15,59,29.20
2006,05,16,16,00,29.20
2006,05,16,16,01,29.30
2006,05,16,16,02,29.30
2006,05,16,16,03,29.30
2006,05,16,16,04,29.30
2006,05,16,16,05,29.20
2006,05,16,16,06,29.20
2006,05,16,16,07,29.20
2006,05,16,16,08,29.20
2006,05,16,16,09,29.20
2006,05,16,16,10,29.20
2006,05,16,16,11,29.30
2006,05,16,16,12,29.30
2006,05,16,16,13,29.20
2006,05,16,16,14,29.10
2006,05,16,16,15,29.00
2006,05,16,16,16,28.90
2006,05,16,16,17,28.90
2006,05,16,16,18,28.90
2006,05,16,16,19,28.90
2006,05,16,16,20,28.90
2006,05,16,16,21,28.90
2006,05,16,16,22,28.90
2006,05,16,16,23,28.90
2006,05,16,16,24,28.90
2006,05,16,16,25,28.90
2006,05,16,16,26,28.90
2006,05,16,16,27,28.90
2006,05,16,16,28,28.90
2006,05,16,16,29,28.90
2006,05,16,16,30,28.90
2006,05,16,16,31,28.90
2006,05,16,16,32,28.80
2006,05,16,16,33,28.60
2006,05,16,16,34,28.60
2006,05,16,16,35,28.50
2006,05,16,16,36,28.60
2006,05,16,16,37,28.60
2006,05,16,16,38,28.60
2006,05,16,16,39,28.60
2006,05,16,16,40,28.50
2006,05,16,16,41,28.40
2006,05,16,16,42,28.40
2006,05,16,16,43,28.40
2006,05,16,16,44,28.40
2006,05,16,16,45,28.40
2006,05,16,16,46,28.30
2006,05,16,16,47,28.30
2006,05,16,16,48,28.30
2006,05,16,16,49,28.20
2006,05,16,16,50,28.20
2006,05,16,16,51,28.20
2006,05,16,16,52,28.10
2006,05,16,16,53,28.10
2006,05,16,16,54,28.10
2006,05,16,16,55,28.00
2006,05,16,16,56,28.00
2006,05,16,16,57,27.90
2006,05,16,16,58,27.80
2006,05,16,16,59,27.80
2006,05,16,17,00,27.80
2006,05,16,17,01,27.70
2006,05,16,17,02,27.70
2006,05,16,17,03,27.70
2006,05,16,17,04,27.70
2006,05,16,17,05,27.60
2006,05,16,17,06,27.60
2006,05,16,17,07,27.50
2006,05,16,17,08,27.40
2006,05,16,17,09,27.40
2006,05,16,17,10,27.30
2006,05,16,17,11,27.30
2006,05,16,17,12,27.30
2006,05,16,17,13,27.30
2006,05,16,17,14,27.30
2006,05,16,17,15,27.40
2006,05,16,17,16,27.40
2006,05,16,17,17,27.40
2006,05,16,17,18,27.40
2006,05,16,17,19,27.40